Time,TemperatureF,DewpointF,PressureIn,WindDirection,WindDirectionDegrees,WindSpeedMPH,WindSpeedGustMPH,Humidity,HourlyPrecipIn,Conditions,Clouds,dailyrainin,SoftwareType,DateUTC
2013-04-20 00:03:00,42.0,31.0,29.91,ESE,111,1.0,8.0,66,0.00,,,0.74,,2013-04-20 04:03:00,
2013-04-20 00:12:00,42.0,31.0,29.91,ESE,111,1.0,8.0,66,0.00,,,0.74,,2013-04-20 04:12:00,
2013-04-20 00:23:00,42.0,33.0,29.91,SSE,150,3.0,13.0,71,0.00,,,0.74,,2013-04-20 04:23:00,
2013-04-20 00:33:00,42.0,33.0,29.91,South,190,5.0,14.0,70,0.00,,,0.74,,2013-04-20 04:33:00,
2013-04-20 00:42:00,42.0,33.0,29.91,South,190,5.0,14.0,70,0.00,,,0.74,,2013-04-20 04:42:00,
2013-04-20 00:52:00,42.0,33.0,29.92,SSW,213,0.0,17.0,69,0.00,,,0.74,,2013-04-20 04:52:00,
2013-04-20 01:02:00,42.0,33.0,29.93,SW,214,3.0,29.0,70,0.00,,,0.73,,2013-04-20 05:02:00,
2013-04-20 01:12:00,42.0,33.0,29.93,SW,214,3.0,29.0,70,0.00,,,0.73,,2013-04-20 05:12:00,
2013-04-20 01:22:00,42.0,33.0,29.91,South,183,9.0,17.0,71,0.00,,,0.73,,2013-04-20 05:22:00,
2013-04-20 01:32:00,41.0,31.0,29.93,SE,137,2.0,7.0,67,0.00,,,0.73,,2013-04-20 05:32:00,
2013-04-20 01:43:00,41.0,31.0,29.93,SE,137,2.0,7.0,67,0.00,,,0.73,,2013-04-20 05:43:00,
2013-04-20 01:52:00,41.0,31.0,29.94,ENE,76,3.0,17.0,67,0.00,,,0.73,,2013-04-20 05:52:00,
2013-04-20 02:02:00,41.0,30.0,29.94,North,352,5.0,11.0,64,0.00,,,0.72,,2013-04-20 06:02:00,
2013-04-20 02:12:00,41.0,30.0,29.94,North,352,5.0,11.0,64,0.00,,,0.72,,2013-04-20 06:12:00,
2013-04-20 02:21:00,41.0,30.0,29.94,WSW,251,5.0,15.0,64,0.00,,,0.72,,2013-04-20 06:21:00,
2013-04-20 02:32:00,40.0,28.0,29.95,SW,229,8.0,18.0,62,0.00,,,0.72,,2013-04-20 06:32:00,
2013-04-20 02:42:00,40.0,28.0,29.95,SW,229,8.0,18.0,62,0.00,,,0.72,,2013-04-20 06:42:00,
2013-04-20 02:52:00,40.0,28.0,29.94,SSW,207,3.0,15.0,61,0.00,,,0.72,,2013-04-20 06:52:00,
2013-04-20 03:01:00,40.0,27.0,29.94,NNE,18,4.0,22.0,60,0.00,,,0.71,,2013-04-20 07:01:00,
2013-04-20 03:11:00,40.0,27.0,29.94,NNE,18,4.0,22.0,60,0.00,,,0.71,,2013-04-20 07:11:00,
2013-04-20 03:21:00,40.0,27.0,29.94,NNW,327,2.0,12.0,59,0.00,,,0.71,,2013-04-20 07:21:00,
2013-04-20 03:32:00,39.0,26.0,29.93,ENE,67,5.0,13.0,59,0.00,,,0.71,,2013-04-20 07:32:00,
2013-04-20 03:42:00,39.0,27.0,29.94,SW,226,8.0,17.0,61,0.00,,,0.71,,2013-04-20 07:42:00,
2013-04-20 03:52:00,39.0,27.0,29.94,SW,226,8.0,17.0,61,0.00,,,0.71,,2013-04-20 07:52:00,
2013-04-20 04:02:00,39.0,26.0,29.94,North,1,2.0,9.0,60,0.00,,,0.69,,2013-04-20 08:02:00,
2013-04-20 04:11:00,39.0,26.0,29.94,North,1,2.0,9.0,60,0.00,,,0.69,,2013-04-20 08:11:00,
2013-04-20 04:21:00,39.0,25.0,29.95,NNW,329,5.0,21.0,57,0.00,,,0.69,,2013-04-20 08:21:00,
2013-04-20 04:32:00,39.0,25.0,29.96,North,349,10.0,15.0,57,0.00,,,0.69,,2013-04-20 08:32:00,
2013-04-20 04:42:00,39.0,25.0,29.96,North,349,10.0,15.0,57,0.00,,,0.69,,2013-04-20 08:42:00,
2013-04-20 04:52:00,39.0,25.0,29.96,NNE,33,8.0,13.0,57,0.00,,,0.69,,2013-04-20 08:52:00,
2013-04-20 05:02:00,39.0,25.0,29.96,ENE,70,4.0,13.0,57,0.00,,,0.69,,2013-04-20 09:02:00,
2013-04-20 05:12:00,39.0,25.0,29.96,ENE,70,4.0,13.0,57,0.00,,,0.69,,2013-04-20 09:12:00,
2013-04-20 05:21:00,38.0,26.0,29.96,West,260,1.0,5.0,62,0.00,,,0.69,,2013-04-20 09:21:00,
2013-04-20 05:33:00,37.0,25.0,29.97,NNE,33,3.0,8.0,62,0.00,,,0.69,,2013-04-20 09:33:00,
2013-04-20 05:43:00,37.0,25.0,29.97,NNE,33,3.0,8.0,62,0.00,,,0.69,,2013-04-20 09:43:00,
2013-04-20 05:53:00,38.0,24.0,29.98,NE,55,7.0,22.0,56,0.00,,,0.69,,2013-04-20 09:53:00,
2013-04-20 06:03:00,38.0,22.0,29.98,North,6,3.0,15.0,52,0.00,,,0.69,,2013-04-20 10:03:00,
2013-04-20 06:13:00,38.0,22.0,29.98,North,6,3.0,15.0,52,0.00,,,0.69,,2013-04-20 10:13:00,
2013-04-20 06:23:00,38.0,21.0,30.00,NW,309,11.0,26.0,49,0.00,,,0.69,,2013-04-20 10:23:00,
2013-04-20 06:33:00,38.0,19.0,30.01,ENE,75,7.0,21.0,46,0.00,,,0.69,,2013-04-20 10:33:00,
2013-04-20 06:42:00,38.0,19.0,30.01,ENE,75,7.0,21.0,46,0.00,,,0.69,,2013-04-20 10:42:00,
2013-04-20 06:52:00,38.0,19.0,30.00,NNW,332,10.0,20.0,45,0.00,,,0.69,,2013-04-20 10:52:00,
2013-04-20 07:02:00,39.0,18.0,30.01,NNW,340,7.0,22.0,42,0.00,,,0.69,,2013-04-20 11:02:00,
2013-04-20 07:12:00,39.0,18.0,30.01,West,272,6.0,14.0,42,0.00,,,0.69,,2013-04-20 11:12:00,
2013-04-20 07:23:00,39.0,18.0,30.01,West,272,6.0,14.0,42,0.00,,,0.69,,2013-04-20 11:23:00,
2013-04-20 07:32:00,38.0,17.0,30.03,West,274,7.0,20.0,42,0.00,,,0.69,,2013-04-20 11:32:00,
2013-04-20 07:42:00,38.0,17.0,30.03,West,274,7.0,20.0,42,0.00,,,0.69,,2013-04-20 11:42:00,
2013-04-20 07:52:00,38.0,17.0,30.03,NNE,22,6.0,22.0,42,0.00,,,0.69,,2013-04-20 11:52:00,
2013-04-20 08:02:00,38.0,17.0,30.05,NNW,339,11.0,26.0,42,0.00,,,0.69,,2013-04-20 12:02:00,
2013-04-20 08:11:00,38.0,17.0,30.05,NNW,339,11.0,26.0,42,0.00,,,0.69,,2013-04-20 12:11:00,
2013-04-20 08:22:00,38.0,16.0,30.04,NNW,344,3.0,17.0,41,0.00,,,0.69,,2013-04-20 12:22:00,
2013-04-20 08:32:00,39.0,18.0,30.06,WSW,252,6.0,19.0,42,0.00,,,0.69,,2013-04-20 12:32:00,
2013-04-20 08:42:00,39.0,18.0,30.06,WSW,252,6.0,19.0,42,0.00,,,0.69,,2013-04-20 12:42:00,
2013-04-20 08:52:00,39.0,19.0,30.06,West,279,5.0,18.0,44,0.00,,,0.69,,2013-04-20 12:52:00,
2013-04-20 09:02:00,39.0,19.0,30.06,West,276,5.0,15.0,44,0.00,,,0.68,,2013-04-20 13:02:00,
2013-04-20 09:11:00,40.0,17.0,30.06,ENE,76,4.0,8.0,39,0.00,,,0.68,,2013-04-20 13:11:00,
2013-04-20 09:21:00,40.0,17.0,30.06,ENE,76,4.0,8.0,39,0.00,,,0.68,,2013-04-20 13:21:00,
2013-04-20 09:32:00,41.0,20.0,30.07,WNW,302,3.0,7.0,43,0.00,,,0.68,,2013-04-20 13:32:00,
2013-04-20 09:42:00,42.0,20.0,30.08,WNW,300,0.0,14.0,41,0.00,,,0.68,,2013-04-20 13:42:00,
2013-04-20 09:52:00,42.0,20.0,30.08,WNW,300,0.0,14.0,41,0.00,,,0.68,,2013-04-20 13:52:00,
2013-04-20 10:02:00,43.0,20.0,30.08,SW,227,3.0,15.0,39,0.00,,,0.63,,2013-04-20 14:02:00,
2013-04-20 10:11:00,43.0,20.0,30.08,SW,227,3.0,15.0,39,0.00,,,0.63,,2013-04-20 14:11:00,
2013-04-20 10:21:00,43.0,19.0,30.09,North,0,9.0,16.0,38,0.00,,,0.63,,2013-04-20 14:21:00,
2013-04-20 10:32:00,44.0,22.0,30.09,NNW,343,6.0,12.0,41,0.00,,,0.63,,2013-04-20 14:32:00,
2013-04-20 10:42:00,44.0,22.0,30.09,NNW,343,6.0,12.0,41,0.00,,,0.63,,2013-04-20 14:42:00,
2013-04-20 10:51:00,45.0,20.0,30.09,NNE,19,5.0,11.0,37,0.00,,,0.63,,2013-04-20 14:51:00,
2013-04-20 11:02:00,46.0,22.0,30.10,NNE,30,5.0,13.0,38,0.00,,,0.59,,2013-04-20 15:02:00,
2013-04-20 11:12:00,46.0,22.0,30.10,NNE,30,5.0,13.0,38,0.00,,,0.59,,2013-04-20 15:12:00,
2013-04-20 11:21:00,46.0,22.0,30.10,North,354,10.0,14.0,38,0.00,,,0.59,,2013-04-20 15:21:00,
2013-04-20 11:33:00,47.0,23.0,30.10,NW,305,5.0,10.0,39,0.00,,,0.59,,2013-04-20 15:33:00,
2013-04-20 11:43:00,48.0,24.0,30.11,North,355,4.0,13.0,38,0.00,,,0.59,,2013-04-20 15:43:00,
2013-04-20 11:53:00,48.0,24.0,30.11,North,355,4.0,13.0,38,0.00,,,0.59,,2013-04-20 15:53:00,
2013-04-20 12:03:00,49.0,22.0,30.10,NNW,336,4.0,10.0,34,0.00,,,0.59,,2013-04-20 16:03:00,
2013-04-20 12:12:00,50.0,22.0,30.11,North,358,2.0,11.0,33,0.00,,,0.59,,2013-04-20 16:12:00,
2013-04-20 12:23:00,50.0,22.0,30.11,North,358,2.0,11.0,33,0.00,,,0.59,,2013-04-20 16:23:00,
2013-04-20 12:33:00,51.0,23.0,30.11,NW,306,3.0,12.0,33,0.00,,,0.59,,2013-04-20 16:33:00,
2013-04-20 12:42:00,52.0,25.0,30.11,WSW,240,4.0,9.0,34,0.00,,,0.59,,2013-04-20 16:42:00,
2013-04-20 12:52:00,52.0,25.0,30.11,WSW,240,4.0,9.0,34,0.00,,,0.59,,2013-04-20 16:52:00,
2013-04-20 13:02:00,53.0,25.0,30.10,SW,229,4.0,12.0,33,0.00,,,0.59,,2013-04-20 17:02:00,
2013-04-20 13:12:00,53.0,22.0,30.10,WNW,298,4.0,8.0,30,0.00,,,0.59,,2013-04-20 17:12:00,
2013-04-20 13:23:00,53.0,22.0,30.10,WNW,298,4.0,8.0,30,0.00,,,0.59,,2013-04-20 17:23:00,
2013-04-20 13:33:00,54.0,22.0,30.10,NNW,333,3.0,9.0,29,0.00,,,0.59,,2013-04-20 17:33:00,
2013-04-20 13:42:00,54.0,22.0,30.10,NNW,333,3.0,9.0,29,0.00,,,0.59,,2013-04-20 17:42:00,
2013-04-20 13:52:00,54.0,24.0,30.10,WNW,292,3.0,8.0,31,0.00,,,0.59,,2013-04-20 17:52:00,
2013-04-20 14:02:00,54.0,23.0,30.09,SSW,208,7.0,11.0,30,0.00,,,0.47,,2013-04-20 18:02:00,
2013-04-20 14:12:00,55.0,25.0,30.09,NW,321,1.0,10.0,31,0.00,,,0.47,,2013-04-20 18:12:00,
2013-04-20 14:22:00,55.0,25.0,30.09,NW,321,1.0,10.0,31,0.00,,,0.47,,2013-04-20 18:22:00,
2013-04-20 14:32:00,55.0,23.0,30.09,WSW,257,4.0,9.0,28,0.00,,,0.47,,2013-04-20 18:32:00,
2013-04-20 14:42:00,55.0,23.0,30.09,WSW,257,4.0,9.0,28,0.00,,,0.47,,2013-04-20 18:42:00,
2013-04-20 14:52:00,55.0,22.0,30.09,ENE,60,1.0,9.0,27,0.00,,,0.47,,2013-04-20 18:52:00,
2013-04-20 15:02:00,56.0,23.0,30.09,NW,304,2.0,10.0,27,0.00,,,0.15,,2013-04-20 19:02:00,
2013-04-20 15:11:00,56.0,23.0,30.09,NE,47,1.0,14.0,28,0.00,,,0.15,,2013-04-20 19:11:00,
2013-04-20 15:21:00,56.0,23.0,30.09,NE,47,1.0,14.0,28,0.00,,,0.15,,2013-04-20 19:21:00,
2013-04-20 15:32:00,57.0,24.0,30.09,West,262,5.0,12.0,28,0.00,,,0.15,,2013-04-20 19:32:00,
2013-04-20 15:42:00,57.0,25.0,30.09,West,261,3.0,10.0,29,0.00,,,0.15,,2013-04-20 19:42:00,
2013-04-20 15:52:00,57.0,25.0,30.09,West,261,3.0,10.0,29,0.00,,,0.15,,2013-04-20 19:52:00,
2013-04-20 16:02:00,58.0,25.0,30.09,NW,321,2.0,9.0,28,0.00,,,0.07,,2013-04-20 20:02:00,
2013-04-20 16:12:00,57.0,23.0,30.10,WNW,302,5.0,12.0,27,0.00,,,0.07,,2013-04-20 20:12:00,
2013-04-20 16:22:00,57.0,23.0,30.10,WNW,302,5.0,12.0,27,0.00,,,0.07,,2013-04-20 20:22:00,
2013-04-20 16:32:00,58.0,27.0,30.09,SSW,212,5.0,11.0,30,0.00,,,0.07,,2013-04-20 20:32:00,
2013-04-20 16:42:00,58.0,27.0,30.09,SSW,212,5.0,11.0,30,0.00,,,0.07,,2013-04-20 20:42:00,
2013-04-20 16:52:00,58.0,26.0,30.10,SW,218,3.0,12.0,29,0.00,,,0.07,,2013-04-20 20:52:00,
2013-04-20 17:02:00,57.0,26.0,30.10,WSW,241,5.0,7.0,30,0.00,,,0.00,,2013-04-20 21:02:00,
2013-04-20 17:12:00,57.0,23.0,30.11,North,353,0.0,9.0,27,0.00,,,0.00,,2013-04-20 21:12:00,
2013-04-20 17:22:00,57.0,23.0,30.11,North,353,0.0,9.0,27,0.00,,,0.00,,2013-04-20 21:22:00,
2013-04-20 17:33:00,56.0,23.0,30.11,NE,49,2.0,8.0,27,0.00,,,0.00,,2013-04-20 21:33:00,
2013-04-20 17:43:00,56.0,23.0,30.11,NE,49,2.0,8.0,27,0.00,,,0.00,,2013-04-20 21:43:00,
2013-04-20 17:52:00,56.0,23.0,30.11,NW,306,2.0,7.0,28,0.00,,,0.00,,2013-04-20 21:52:00,
2013-04-20 18:03:00,56.0,25.0,30.12,SSW,199,3.0,6.0,30,0.00,,,0.00,,2013-04-20 22:03:00,
2013-04-20 18:12:00,57.0,25.0,30.12,NW,320,2.0,9.0,29,0.00,,,0.00,,2013-04-20 22:12:00,
2013-04-20 18:23:00,57.0,25.0,30.12,NW,320,2.0,9.0,29,0.00,,,0.00,,2013-04-20 22:23:00,
2013-04-20 18:32:00,56.0,24.0,30.13,ENE,69,4.0,11.0,29,0.00,,,0.00,,2013-04-20 22:32:00,
2013-04-20 18:42:00,56.0,24.0,30.13,ENE,69,4.0,11.0,29,0.00,,,0.00,,2013-04-20 22:42:00,
2013-04-20 18:52:00,55.0,24.0,30.13,NNE,21,6.0,8.0,30,0.00,,,0.00,,2013-04-20 22:52:00,
2013-04-20 19:02:00,54.0,26.0,30.13,NNW,346,3.0,10.0,33,0.00,,,0.00,,2013-04-20 23:02:00,
2013-04-20 19:12:00,54.0,26.0,30.13,NNW,346,3.0,10.0,33,0.00,,,0.00,,2013-04-20 23:12:00,
2013-04-20 19:22:00,54.0,26.0,30.13,NNE,22,3.0,14.0,33,0.00,,,0.00,,2013-04-20 23:22:00,
2013-04-20 19:32:00,53.0,26.0,30.14,NW,326,3.0,8.0,35,0.00,,,0.00,,2013-04-20 23:32:00,
2013-04-20 19:42:00,53.0,26.0,30.14,NW,326,3.0,8.0,35,0.00,,,0.00,,2013-04-20 23:42:00,
2013-04-20 19:52:00,52.0,25.0,30.14,NE,34,5.0,8.0,35,0.00,,,0.00,,2013-04-20 23:52:00,
2013-04-20 20:01:00,51.0,24.0,30.15,ENE,72,9.0,13.0,35,0.00,,,0.00,,2013-04-21 00:01:00,
2013-04-20 20:12:00,51.0,24.0,30.15,ENE,72,9.0,13.0,35,0.00,,,0.00,,2013-04-21 00:12:00,
2013-04-20 20:22:00,50.0,25.0,30.15,NNW,340,4.0,10.0,37,0.00,,,0.00,,2013-04-21 00:22:00,
2013-04-20 20:32:00,50.0,25.0,30.16,WNW,293,3.0,8.0,38,0.00,,,0.00,,2013-04-21 00:32:00,
2013-04-20 20:42:00,50.0,25.0,30.16,WNW,293,3.0,8.0,38,0.00,,,0.00,,2013-04-21 00:42:00,
2013-04-20 20:52:00,50.0,25.0,30.17,WNW,299,3.0,12.0,38,0.00,,,0.00,,2013-04-21 00:52:00,
2013-04-20 21:01:00,49.0,26.0,30.18,NNW,348,5.0,11.0,40,0.00,,,0.00,,2013-04-21 01:01:00,
2013-04-20 21:12:00,49.0,26.0,30.18,NNW,348,5.0,11.0,40,0.00,,,0.00,,2013-04-21 01:12:00,
2013-04-20 21:21:00,49.0,25.0,30.18,NNW,327,0.0,8.0,39,0.00,,,0.00,,2013-04-21 01:21:00,
2013-04-20 21:32:00,48.0,25.0,30.20,North,354,4.0,11.0,41,0.00,,,0.00,,2013-04-21 01:32:00,
2013-04-20 21:42:00,48.0,25.0,30.20,North,354,4.0,11.0,41,0.00,,,0.00,,2013-04-21 01:42:00,
2013-04-20 21:52:00,48.0,26.0,30.20,NNW,327,0.0,7.0,42,0.00,,,0.00,,2013-04-21 01:52:00,
2013-04-20 22:02:00,46.0,28.0,30.21,NE,42,0.0,0.0,49,0.00,,,0.00,,2013-04-21 02:02:00,
2013-04-20 22:11:00,46.0,28.0,30.21,NE,42,0.0,0.0,49,0.00,,,0.00,,2013-04-21 02:11:00,
2013-04-20 22:22:00,45.0,27.0,30.21,NE,42,0.0,0.0,49,0.00,,,0.00,,2013-04-21 02:22:00,
2013-04-20 22:32:00,43.0,27.0,30.22,NE,42,0.0,1.0,53,0.00,,,0.00,,2013-04-21 02:32:00,
2013-04-20 22:42:00,43.0,27.0,30.22,NE,42,0.0,1.0,53,0.00,,,0.00,,2013-04-21 02:42:00,
2013-04-20 22:52:00,42.0,27.0,30.22,NE,42,0.0,2.0,55,0.00,,,0.00,,2013-04-21 02:52:00,
2013-04-20 23:01:00,41.0,27.0,30.22,NE,42,0.0,1.0,58,0.00,,,0.00,,2013-04-21 03:01:00,
2013-04-20 23:11:00,41.0,27.0,30.22,NE,42,0.0,1.0,58,0.00,,,0.00,,2013-04-21 03:11:00,
2013-04-20 23:22:00,41.0,28.0,30.22,NE,42,0.0,1.0,59,0.00,,,0.00,,2013-04-21 03:22:00,
2013-04-20 23:33:00,40.0,28.0,30.23,NE,42,0.0,1.0,62,0.00,,,0.00,,2013-04-21 03:33:00,
2013-04-20 23:42:00,40.0,28.0,30.23,NE,42,0.0,1.0,62,0.00,,,0.00,,2013-04-21 03:42:00,
2013-04-20 23:52:00,39.0,28.0,30.23,NE,42,0.0,1.0,65,0.00,,,0.00,,2013-04-21 03:52:00,